Showing default

QIANFAN-47, 62248

Orbit data source: Space-Track

QIANFAN-47, 62248 is a Chinese payload satellite in LEO that was launched on Thu, 05 Dec 2024 UTC via a CHANG ZHENG 6A launch vehicle from the Taiyaun Space Center, China (TSC). Payload-class satellites include a variety of spacecraft equipped with specific instruments for various scientific and technological missions. These include communications satellites like Starlink; space stations such as the ISS; scientific satellites like the Hubble; Earth observation satellites from companies like Planet Labs, Umbra, and HawkEye 360; GPS; miniature CubeSats for education and research; and military/defense satellites.

Loading next visibility...
Identifier
62248, 2024-232M
Orbit
LEO
Country
Flag of CNCN / PRC
Related business
Manufacturer
SECM
Mission
Operational Commercial Communications
Bus & Motor
QIANFAN, Unknown motor
Mass
267 kg wet, ~267 kg dry
Launch date (UTC)
2024-12-05 (2 years ago)
Launch vehicle
CHANG ZHENG 6A
Launch site
Taiyaun Space Center, China (TSC)
Object type
Payload
Rocket body
Debris
Shape & HBR
Box + 1 Pan, 5.0 m
Radar Cross Section
13.200 m², Large (>1 m²)

Expand to show TLE details & history
Last TLE update: 9 hours ago

TLE from 9 hours ago
0 QIANFAN-47
1 62248U 24232M   26246.81303364  .00000073  00000-0  94646-4 0  9996
2 62248  89.0139  14.6015 0016137 146.9610 213.2553 13.51026576135035
Epoch: 2026-09-03T19:30Z
TLE epoch observation values (Epoch: 2026-09-03T19:30:46.106Z)
Latitude
0.00001°
Longitude
98.96356°
Altitude
1,081.494 km
Speed
7.306 km/s
True Right ascension
00h 58m 24s
True Declination
0° 00' 00"
Sunlit
Object was in full shadow at epoch
Visualization orbit readout
Latitude
Unknown
Longitude
Unknown
Altitude
Unknown
Speed
Unknown
Apparent Right ascension
Unknown
Apparent Declination
Unknown
Sunlit
N/A
Visualization observer readout
Local Sidereal Time
20:53:03
Azimuth
Unknown
Elevation
Unknown
Doppler factor
Unknown
Orbital elements
Apogee altitude
1,077.547 km
Perigee altitude
1,053.523 km
Semi-major axis
7,443.672 km
Eccentricity
0.00161
Inclination
89.0139°
RAAN
14.6015°
Arg. of periapsis
146.961°
True anomaly
213.15407°
Mean anomaly
213.2553°
Eccentric anomaly
213.20467°
Mean motion
3.37958 °/min
Orbital period
106.52 mins
BSTAR
0.000094646
Loading maneuver chart data...
Computing Atmospheric mass density...
Loading historical data...
Loading historical data...
Loading historical data...
Loading historical data...
Loading historical data...
Loading historical data...
Loading historical data...

Documentation

Showing up to 5 results
|